Regional Weather Roundup
Issued by NWS

Home | Current Version | Previous Version | Text Only | Print | Product List | Glossary Off
Versions: 1 2 3 4 5 6 7 8 9 10 11 12 13 14 15 16 17 18 19 20 21 22 23 24 25 26 27 28 29 30 31 32 33 34 35 36 37 38 39 40 41 42 43 44 45 46 47 48 49 50

000
ASUS45 KTFX 022004
RWRMT
MONTANA HOURLY WEATHER ROUNDUP
NATIONAL WEATHER SERVICE GREAT FALLS MT
204 PM MDT TUE SEP 2 2014

NOTE: "FAIR" INDICATES FEW OR NO CLOUDS BELOW 12000 FEET WITH NO
SIGNIFICANT WEATHER AND/OR OBSTRUCTIONS TO VISIBILITY.

* THESE STATIONS ARE NOT UNDER NWS QUALITY CONTROL. THEY DO NOT
   REPORT WEATHER SUCH AS PRECIPITATION OR FOG.

MTZ001>007-043-022100-
WEST OF THE DIVIDE
CITY           SKY/WX    TMP DP  RH WIND       PRES   REMARKS
KALISPELL      PTSUNNY   72  43  35 S8        29.78F
MISSOULA       PTSUNNY   73  41  32 NW5       29.82F
BUTTE          SUNNY     70  28  21 SW7G17    29.91F
MULLAN PASS    SUNNY     57  39  51 W9G20     29.92F
* LINCOLN      N/A       68  39  35 W7G14      N/A
* LOOKOUT PASS N/A       63  41  45 SE14G22    N/A
* POLSON       N/A       69  41  36 S3G9       N/A
* RONAN APT    PTCLDY    73  41  32 S14G22     N/A
* SEELEY LAKE  N/A       69  40  35 NW5G11     N/A
* THOMP F APT  SUNNY     62  33  34 SE8G17     N/A
$$

MTZ008-052>055-022100-
SOUTHWEST MONTANA
CITY           SKY/WX    TMP DP  RH WIND       PRES   REMARKS
BOZEMAN        SUNNY     73  39  29 NE3       29.86F
DILLON         SUNNY     73  34  24 SW12      29.90F
W YELLOWSTONE  SUNNY     64  36  35 SW16G33   30.06F
* THREE FORKS  SUNNY     72  72 100 N/A        N/A
* BOULDER HILL N/A       66  34  31 S15G22     N/A
* MONIDA PASS  N/A       59  35  41 SE24       N/A
* RAYNOLDS PAS N/A       64  50  61 SW17G22    N/A
* WHITEHALL    N/A       74  36  25 SW16G26    N/A
* WISE RIVER   N/A       70  27  20 NW8G17     N/A
$$

MTZ009>010-012-014-046-048-049-054-022100-
EAST SLOPES AND CENTRAL MONTANA
CITY           SKY/WX    TMP DP  RH WIND       PRES   REMARKS
CUT BANK       PTSUNNY   70  39  32 SW15G26   29.77F
GREAT FALLS    PTSUNNY   72  37  28 SW18G24   29.79F
HELENA         SUNNY     73  39  29 VRB6      29.82F
MALMSTROM AFB  PTSUNNY   72  37  28 SW13G21   29.80F
* CONRAD       PTSUNNY   70  36  29 S10G16     N/A
* EAST GLACIER N/A       61  37  41 NW11G17    N/A
* MONARCH      N/A       65  26  23 SW16G27    N/A
* PENDROY      N/A       64  38  38 S12        N/A
* ROGERS PASS  N/A       63  34  34 SE17G24    N/A
* SAINT MARY   N/A       62  38  41 S9G21      N/A
* SWEET GRASS  N/A       67  37  33 W12G19     N/A
$$

MTZ011-013-016-021-035-040-045-047-050-051-022100-
NORTH CENTRAL MONTANA
CITY           SKY/WX    TMP DP  RH WIND       PRES   REMARKS
HAVRE          PTCLDY    73  37  27 SW13      29.75F
LEWISTOWN      PTCLDY    70  39  32 W9G16     29.84F
* CHESTER      N/A       70  35  28 W10G19     N/A
* DENTON       N/A       74  39  28 SW10G16    N/A
* GEYSER       N/A       72  36  27 W12G17     N/A
* JUDITH GAP   N/A       71  37  29 SW11G23    N/A
* LOMA         N/A       71  37  29 SW12       N/A
$$

MTZ017>020-022>027-061-062-022100-
NORTHEAST MONTANA
CITY           SKY/WX    TMP DP  RH WIND       PRES   REMARKS
GLASGOW        PTCLDY    72  43  35 W7        29.78F
GLENDIVE       PTCLDY    73  43  34 W12       29.83S
JORDAN         PTSUNNY   70  39  32 NW9       29.82F
SIDNEY         PTSUNNY   73  46  38 W12       29.81S
WOLF POINT     PTSUNNY   73  46  38 SW7       29.80S
* BEAVER HILL  N/A       74  41  31 W16        N/A
* CIRCLE       N/A       71  45  39 N/A        N/A
* LINDSAY DVD  N/A       70  41  35 W15G20     N/A
* NAVAJO       N/A       70  41  35 N9G16      N/A
$$

MTZ028>042-056>058-022100-
SOUTHCENTRAL AND SOUTHEAST MONTANA
CITY           SKY/WX    TMP DP  RH WIND       PRES   REMARKS
BAKER          PTSUNNY   72  41  33 NW15G23   29.87F
BILLINGS       PTCLDY    73  39  29 VRB6      29.85F
LIVINGSTON     SUNNY     79  34  20 SW22G29   29.84F
MILES CITY     PTSUNNY   73  39  29 W10       29.84F
* LAUREL APT   SUNNY     73  43  34 NE6        N/A
* ROUNDUP APT  PTCLDY    73  39  29 SW5        N/A
* ALZADA       N/A       79  41  26 SW8        N/A
* HYSHAM       N/A       74  39  28 SE4        N/A
* LAME DEER    N/A       71  40  33 NW6        N/A
* REED POINT   N/A       76  40  27 E8         N/A
* ROSCOE HILL  N/A       70  32  25 E9         N/A
$$

REGIONAL REPORTS...DAKOTAS
CITY           SKY/WX    TMP DP  RH WIND       PRES   REMARKS
WILLISTON      PTCLDY    75  45  34 NW8       29.77S
DICKINSON      PTSUNNY   73  43  34 W22       29.82S
BEACH          N/A       72  45  38 W15       29.84F
CROSBY         SUNNY     72  45  38 NW12G17   29.76S
TIOGA          SUNNY     73  45  37 NW14G21   29.80R
WATFORD CITY   SUNNY     73  45  37 NW12G18   29.77S
BISMARCK       PTSUNNY   79  50  36 W10       29.79S
GRAND FORKS    PTCLDY    73  54  51 S13       29.72F
FARGO          PTCLDY    79  54  42 SW16      29.77F
BUFFALO SD     PTCLDY    75  45  34 VRB7      29.81S
RAPID CITY     SUNNY     79  50  36 SE9       29.89S
$$

REGIONAL REPORTS...WYOMING/IDAHO/WASHINGTON
CITY           SKY/WX    TMP DP  RH WIND       PRES   REMARKS
GILLETTE       PTCLDY    77  34  21 S8        29.91F
SHERIDAN       SUNNY     77  43  30 VRB3      29.88F
CODY           PTCLDY   N/A N/A N/A N/A        N/A
YELLOWSTONE LA SUNNY     61  30  31 W13G24    30.15F
SALMON         SUNNY     70  46  42 N5        29.85F
MULLAN PASS    SUNNY     57  39  51 W9G20     29.92S
SAND POINT     PTSUNNY   68  45  44 SW7       29.79F
SPOKANE        PTSUNNY   70  43  38 SW12G22   29.80F

$$




USA.gov is the U.S. government's official web portal to all federal, state and local government web resources and services.